Regional Weather Roundup
Issued by NWS

Home | Current Version | Previous Version | Graphics & Text | Print | Product List | Glossary Off
Versions: 1 2 3 4 5 6 7 8 9 10 11 12 13 14 15 16 17 18 19 20 21 22 23 24 25 26 27 28 29 30 31 32 33 34 35 36 37 38 39 40 41 42 43 44 45 46 47 48 49 50

000
ASUS43 KMPX 010301
RWRMN
WEATHER ROUNDUP FOR MINNESOTA
NATIONAL WEATHER SERVICE TWIN CITIES/CHANHASSEN MN
1000 PM CDT SAT APR 30 2016


NOTE: "FAIR" INDICATES FEW OR NO CLOUDS BELOW 12,000 FEET WITH NO
SIGNIFICANT WEATHER AND/OR OBSTRUCTIONS TO VISIBILITY. N/A MEANS
CURRENT SKY AND/OR WEATHER CONDITIONS ARE NOT AVAILABLE.

MNZ060>063-068>070-010400-
   Twin Cities Metro

CITY           SKY/WX    TMP DP  RH WIND       PRES   REMARKS
TWIN CITIES    CLOUDY    50  29  44 NE14G24   30.10R
ST PAUL        CLOUDY    50  30  46 NE17      30.11R
CRYSTAL        CLOUDY    50  28  42 NE15G29   30.10R
BLAINE         CLOUDY    48  28  46 NE17      30.11R
EDEN PRAIRIE   CLOUDY    51  28  41 NE15G23   30.08R
SOUTH ST PAUL  CLOUDY    50  31  47 NE8G18    30.10R
LAKE ELMO      CLOUDY    48  32  53 NE9G17    30.11R
$$
MNZ001>005-007-008-013>017-022>024-027-028-010400-
   Northwest Minnesota

CITY           SKY/WX    TMP DP  RH WIND       PRES   REMARKS
BEMIDJI        CLEAR     46  28  48 NE3       30.21S
HALLOCK        CLEAR     48  27  43 E5        30.27R
ROSEAU         CLEAR     45  34  65 NE5       30.28R
WARROAD        CLEAR     45  32  61 NE6       30.28S
THIEF RVR FALL CLEAR     48  27  43 N9        30.26R
CROOKSTON      CLEAR     48  28  46 NE9       30.25S
FOSSTON        CLEAR     45  27  49 NE8       30.23R
DETROIT LAKES  CLEAR     50  30  46 NE6       30.19R
MOORHEAD       CLOUDY    52  28  40 NE15      30.19R
PARK RAPIDS    CLEAR     51  30  44 E7        30.19R
MAHNOMEN       FAIR      48  30  50 NE12      30.19R
$$
MNZ006-009>011-018-025>026-010400-
   North Central Minnesota

CITY           SKY/WX    TMP DP  RH WIND       PRES   REMARKS
BAUDETTE       CLEAR     47  25  42 NE7       30.26R
FLAG ISLAND    CLEAR     50  25  37 NE5       30.27S
INTL FALLS     CLEAR     45  28  51 NE5       30.25S
WASKISH        CLEAR     46  28  49 NE5       30.24S
BIG FORK       CLEAR     43  28  56 E3        30.24R
LONGVILLE      CLEAR     45  30  57 E3        30.21S
GRAND RAPIDS   CLEAR     41  27  56 CALM      30.24R
CRANE LAKE     CLEAR     36  28  75 CALM      30.27S
ORR            CLEAR     43  27  52 CALM      30.23R
COOK           CLEAR     41  28  60 CALM      30.25S
WALKER         FAIR      47  33  57 E8        30.20R
$$
MNZ012-019>021-037-010400-
   Northeast Minnesota

CITY           SKY/WX    TMP DP  RH WIND       PRES   REMARKS
DULUTH         CLOUDY    38  26  62 NE9       30.22F
ELY            CLEAR     36  28  75 CALM      30.25S
HIBBING        CLEAR     39  27  62 E6        30.23S
EVELETH        CLEAR     36  27  69 NE3       30.26S
DULUTH HARBOR  CLOUDY    39  34  81 NE14      30.25S
TWO HARBORS    CLEAR     41  28  60 NE3       30.23S
SILVER BAY     CLEAR     39  27  60 N3        30.23S
GRAND MARAIS     N/A     45  27  49 N6        30.26S
G MARAIS ARPRT CLEAR     34  23  64 N6        30.26R WCI  29
$$
MNZ029>031-032-039>041-046>048-054>057-064-010400-
   West Central Minnesota

CITY           SKY/WX    TMP DP  RH WIND       PRES   REMARKS
FERGUS FALLS   CLOUDY    48  34  57 NE3       30.15R
WHEATON        CLOUDY    46  34  61 E7        30.17R
MORRIS         PTCLDY    48  30  49 E13       30.14R
ALEXANDRIA     CLOUDY    47  29  49 E15       30.17R
ELBOW LAKE     FAIR      49  30  48 E7        30.16R
WADENA         PTCLDY    46  30  53 E6        30.18R
GLENWOOD       PTCLDY    46  30  53 NE16      30.15R
APPLETON       MOCLDY    50  28  43 NE14G23   30.12S
BENSON         CLOUDY    48  27  43 E14G20    30.13S
ORTONVILLE     CLOUDY    48  32  53 E13       30.14R
MADISON        MOCLDY    48  30  49 NE15      30.12R
WILLMAR        FAIR      50  34  53 NE12G20   30.13R
$$
MNZ033>034-036-042>043-049>051-058-059-010400-
   Central Minnesota

CITY           SKY/WX    TMP DP  RH WIND       PRES   REMARKS
ST CLOUD       CLOUDY    46  28  49 NE13G23   30.14R
SAUK CENTRE    FAIR      46  29  52 NE15G23   30.16R
PAYNESVILLE    MOCLDY    46  28  49 NE12      30.14R
AITKIN         CLOUDY    43  27  52 E3        30.20R
PINE RIVER     CLEAR     45  30  57 E7        30.23R
BRAINERD       CLOUDY    43  28  55 NE7       30.19S
STAPLES        CLOUDY    45  28  53 E5        30.19R
LONG PRAIRIE   FAIR      45  30  57 NE12      30.17R
LITTLE FALLS   PTCLDY    45  28  53 NE8G18    30.18R
LITCHFIELD     MOCLDY    50  30  46 NE14G22   30.12R
BUFFALO        CLOUDY    49  28  44 NE17G26   30.12R
MAPLE LAKE     MOCLDY    49  33  53 NE12      30.12R
HUTCHINSON     CLOUDY    50  33  51 NE17G26   30.11R
$$
MNZ037-044-045-052-053-010400-
   East Central Minnesota

CITY           SKY/WX    TMP DP  RH WIND       PRES   REMARKS
PRINCETON      PTCLDY    46  30  53 N12       30.15R
MORA           PTCLDY    43  28  56 NE6       30.19R
CAMBRIDGE      PTCLDY    48  30  49 N10G18    30.13R
RUSH CITY      PTCLDY    44  27  50 NE16G25   30.15S
MOOSE LAKE     PTCLDY    39  28  65 E8        30.19S
HINCKLEY       FAIR      41  32  70 N12       30.18R
CLOQUET        CLOUDY    39  25  56 NE9       30.22S
MCGREGOR       CLOUDY    41  30  65 NE6       30.22R
$$
MNZ071>073-080-081-089-090-097-098-010400-
   Southwest Minnesota

CITY           SKY/WX    TMP DP  RH WIND       PRES   REMARKS
MONTEVIDEO     CLOUDY    48  34  57 E15       30.13R
GRANITE FALLS  CLOUDY    52  36  53 NE17G24   30.11R
CANBY          CLOUDY    52  37  58 NE15      30.11R
MARSHALL       CLOUDY    47  41  80 E5        30.09R
REDWOOD FALLS  CLOUDY    51  33  50 NE10G18   30.08R
OLIVIA         CLOUDY    50  32  50 NE16      30.09R
PIPESTONE      CLOUDY    45  41  87 E13       30.05R
WINDOM         LGT RAIN  45  43  93 E14       30.06R
WORTHINGTON    LGT RAIN  42  40  92 NE15      30.05R
JACKSON        LGT RAIN  43  41  93 E17       30.05R
TRACY          RAIN      45  43  93 E7        30.08R
SLAYTON        LGT RAIN  43  42  97 E9        30.06R
$$
MNZ065>067-074>077-082>085-091>093-010400-
   South Central Minnesota

CITY           SKY/WX    TMP DP  RH WIND       PRES   REMARKS
MANKATO        CLOUDY    45  39  81 E10       30.07R
NEW ULM        LGT RAIN  45  43  93 E5        30.08R
ST JAMES       RAIN      39  37  93 E9        30.08R
FAIRMONT       CLOUDY    43  34  70 NE20      30.05R
GLENCOE        CLOUDY    50  34  54 NE9G17    30.09R
OWATONNA       LGT RAIN  45  39  81 NE8       30.07R
WASECA         DRIZZLE   43  39  87 NE9       30.08R
ALBERT LEA     CLOUDY    43  43 100 E16G22    30.04R
$$
MNZ078>079-086>088-094>096-010400-
   Southeast Minnesota

CITY           SKY/WX    TMP DP  RH WIND       PRES   REMARKS
ROCHESTER      LGT RAIN  43  39  86 E17G24    30.05R
RED WING       CLOUDY    50  36  57 E7        30.08R
STANTON        LGT RAIN  47  40  77 CALM      30.07R
DODGE CENTER   LGT RAIN  41  41 100 NE13      30.06R
WINONA         LGT RAIN  45  39  81 E8        30.07R
AUSTIN         LGT RAIN  43  39  87 E13       30.04R
PRESTON        LGT RAIN  40  38  92 NE7       30.05R
$$
ABBREVIATIONS USED IN REMARKS
   TC - TEMPERATURES IN CELSIUS
  WCI - WIND CHILL INDEX
   HX - HEAT INDEX
  VSB - VISIBILITY
$$




USA.gov is the U.S. government's official web portal to all federal, state and local government web resources and services.